period_start,C,m1,H,J0,J1,J2,J3,J4,J5,JA,JB,JC,JD,JJ,JK,JN,#
2013-11-09 00:00:56,0.04,1.87,0.00,21.20,22.65,25.47,5.92,31.58,1013.22,2062.03,2733.51,2897.00,3058.09,349.99,324.96,33.22,0000 0000 0000 0000 000000
2013-11-09 00:01:56,0.09,1.87,0.00,21.21,22.65,25.51,5.97,31.88,1013.22,2062.03,2733.22,2897.00,3058.03,350.26,325.09,33.23,0000 0000 0000 0000 000000
2013-11-09 00:02:56,0.04,1.87,0.00,21.21,22.65,25.51,5.97,31.75,1013.24,2062.03,2733.08,2896.99,3058.01,350.76,325.57,33.24,0000 0000 0000 0000 000000
2013-11-09 00:03:56,0.04,1.87,0.00,21.19,22.65,25.54,5.94,31.79,1013.28,2062.02,2733.01,2896.98,3058.00,350.26,325.31,33.24,0000 0000 0000 0000 000000
2013-11-09 00:04:57,-0.01,1.87,0.00,21.18,22.66,25.50,5.96,31.92,1013.42,2062.01,2732.97,2896.97,3058.00,349.97,324.82,33.25,0000 0000 0000 0000 000000
2013-11-09 00:05:57,0.00,1.87,0.00,21.17,22.66,25.57,6.03,32.13,1013.61,2062.04,2732.86,2896.94,3057.98,350.29,325.22,33.25,0000 0000 0000 0000 000000
2013-11-09 00:06:57,0.08,1.87,0.00,21.15,22.66,25.50,5.93,31.33,1013.59,2062.05,2732.48,2896.91,3057.94,350.47,325.82,33.26,0000 0000 0000 0000 000000
2013-11-09 00:07:57,0.06,1.87,0.00,21.15,22.67,25.48,5.93,31.71,1013.63,2062.02,2732.18,2896.73,3057.80,349.41,324.50,33.26,0000 0000 0000 0000 000000
2013-11-09 00:08:57,0.14,1.87,0.00,21.15,22.67,25.51,5.97,31.58,1013.59,2062.02,2732.07,2896.46,3057.54,349.67,324.55,33.27,0000 0000 0000 0000 000000
2013-11-09 00:09:58,0.11,1.88,0.00,21.16,22.67,25.52,5.89,31.71,1013.61,2062.04,2732.02,2896.25,3057.24,350.06,325.33,33.28,0000 0000 0000 0000 000000
2013-11-09 00:10:58,0.11,1.88,0.00,21.18,22.67,25.48,6.05,32.25,1013.53,2062.03,2732.00,2896.11,3057.12,350.30,325.52,33.28,0000 0000 0000 0000 000000
2013-11-09 00:11:58,0.05,1.88,0.00,21.17,22.67,25.49,5.91,31.67,1013.37,2062.01,2731.91,2896.05,3057.04,350.05,324.99,33.29,0000 0000 0000 0000 000000
2013-11-09 00:12:58,0.02,1.88,0.00,21.16,22.67,25.47,6.00,31.67,1013.29,2062.00,2731.56,2896.02,3057.01,350.60,325.48,33.29,0000 0000 0000 0000 000000
2013-11-09 00:13:58,0.07,1.88,0.00,21.17,22.67,25.49,5.96,32.00,1013.24,2062.00,2731.22,2896.00,3057.00,349.83,324.75,33.30,0000 0000 0000 0000 000000
2013-11-09 00:14:59,0.06,1.88,0.00,21.19,22.67,25.54,5.98,32.04,1013.23,2062.03,2731.08,2896.01,3057.00,349.67,324.57,33.31,0000 0000 0000 0000 000000
2013-11-09 00:15:59,0.04,1.88,0.00,21.17,22.67,25.52,5.93,31.33,1013.23,2062.02,2731.03,2896.00,3056.99,350.05,324.94,33.31,0000 0000 0000 0000 000000
2013-11-09 00:16:59,0.00,1.88,0.00,21.19,22.67,25.48,6.03,31.75,1013.23,2062.03,2731.00,2895.99,3056.94,350.39,325.23,33.32,0000 0000 0000 0000 000000
2013-11-09 00:17:59,0.02,1.88,0.00,21.22,22.67,25.50,5.77,31.46,1013.22,2062.02,2730.97,2895.98,3056.88,348.23,323.19,33.32,0000 0000 0000 0000 000000
2013-11-09 00:18:59,0.02,1.88,0.00,21.20,22.67,25.51,5.97,32.29,1013.20,2062.02,2730.66,2895.99,3056.61,349.20,324.11,33.33,0000 0000 0000 0000 000000
2013-11-09 00:20:00,0.10,1.88,0.00,21.18,22.67,25.47,5.88,31.75,1013.21,2062.01,2730.28,2895.98,3056.30,349.36,324.28,33.34,0000 0000 0000 0000 000000
2013-11-09 00:21:00,0.10,1.88,0.00,21.20,22.67,25.45,5.97,31.17,1013.22,2062.02,2730.13,2895.97,3056.14,350.61,325.09,33.34,0000 0000 0000 0000 000000
2013-11-09 00:22:00,0.05,1.88,0.00,21.21,22.67,25.49,6.11,31.92,1013.29,2062.02,2730.05,2895.91,3056.06,349.97,324.84,33.35,0000 0000 0000 0000 000000
2013-11-09 00:23:01,0.02,1.88,0.00,21.22,22.67,25.53,5.98,31.54,1013.26,2062.02,2730.01,2895.66,3056.02,349.36,324.27,33.35,0000 0000 0000 0000 000000
2013-11-09 00:24:01,0.11,1.88,0.00,21.22,22.67,25.52,6.04,32.17,1013.22,2062.01,2729.83,2895.37,3056.00,350.18,325.35,33.36,0000 0000 0000 0000 000000
2013-11-09 00:25:01,0.10,1.88,0.00,21.22,22.67,25.52,5.86,31.54,1013.23,2062.01,2729.55,2895.15,3056.00,349.47,324.35,33.36,0000 0000 0000 0000 000000
2013-11-09 00:26:01,0.09,1.88,0.00,21.22,22.67,25.50,5.88,31.75,1013.23,2062.00,2729.26,2895.06,3055.96,349.25,324.15,33.37,0000 0000 0000 0000 000000
2013-11-09 00:27:01,0.08,1.88,0.00,21.24,22.67,25.50,6.03,31.75,1013.23,2062.00,2729.09,2895.02,3055.93,349.59,324.45,33.38,0000 0000 0000 0000 000000
2013-11-09 00:28:02,0.03,1.88,0.00,21.24,22.67,25.52,6.03,31.92,1013.24,2062.00,2729.03,2895.00,3055.88,350.23,325.03,33.38,0000 0000 0000 0000 000000
2013-11-09 00:29:02,0.01,1.88,0.00,21.25,22.67,25.48,6.01,31.38,1013.33,2062.00,2728.97,2895.00,3055.58,350.21,325.22,33.39,0000 0000 0000 0000 000000
2013-11-09 00:30:02,0.06,1.88,0.00,21.25,22.68,25.53,5.95,31.88,1013.31,2062.00,2728.77,2894.99,3055.26,349.38,324.44,33.39,0000 0000 0000 0000 000000
2013-11-09 00:31:02,0.09,1.88,0.00,21.25,22.68,25.50,5.97,31.71,1013.27,2062.00,2728.60,2894.98,3055.12,349.28,324.41,33.40,0000 0000 0000 0000 000000
2013-11-09 00:32:03,0.04,1.88,0.00,21.22,22.68,25.53,5.98,31.63,1013.22,2062.01,2728.29,2894.99,3055.05,349.97,324.66,33.41,0000 0000 0000 0000 000000
2013-11-09 00:33:03,0.07,1.88,0.00,21.21,22.68,25.54,5.98,31.67,1013.24,2062.02,2728.11,2894.97,3055.01,350.02,325.44,33.41,0000 0000 0000 0000 000000
2013-11-09 00:34:03,0.05,1.88,0.00,21.21,22.69,25.51,5.85,31.79,1013.25,2062.02,2728.04,2894.95,3055.00,348.87,323.63,33.42,0000 0000 0000 0000 000000
2013-11-09 00:35:03,0.01,1.88,0.00,21.20,22.69,25.55,5.94,31.25,1013.28,2062.00,2728.00,2894.89,3055.00,349.92,325.00,33.42,0000 0000 0000 0000 000000
2013-11-09 00:36:03,0.01,1.88,0.00,21.21,22.69,25.55,6.00,32.00,1013.22,2062.00,2727.81,2894.60,3054.97,349.75,324.61,33.43,0000 0000 0000 0000 000000
2013-11-09 00:37:03,0.13,1.89,0.00,21.21,22.69,25.58,5.95,31.92,1013.22,2062.00,2727.42,2894.33,3054.92,349.68,324.88,33.43,0000 0000 0000 0000 000000
2013-11-09 00:38:04,0.14,1.89,0.00,21.22,22.69,25.54,5.92,31.54,1013.20,2062.01,2727.18,2894.15,3054.69,349.72,324.57,33.44,0000 0000 0000 0000 000000
2013-11-09 00:39:04,0.14,1.89,0.00,21.21,22.69,25.51,5.98,31.54,1013.20,2062.01,2727.06,2894.05,3054.33,349.28,324.18,33.45,0000 0000 0000 0000 000000
2013-11-09 00:40:04,0.09,1.89,0.00,21.24,22.69,25.51,6.02,31.71,1013.20,2062.03,2727.02,2894.03,3054.14,350.01,324.83,33.45,0000 0000 0000 0000 000000
2013-11-09 00:41:04,0.05,1.89,0.00,21.24,22.69,25.50,5.99,31.67,1013.20,2062.03,2726.99,2894.01,3054.06,350.91,325.65,33.46,0000 0000 0000 0000 000000
2013-11-09 00:42:05,0.02,1.89,0.00,21.24,22.69,25.47,6.13,31.75,1013.15,2062.02,2726.57,2894.00,3054.02,350.95,325.67,33.46,0000 0000 0000 0000 000000
2013-11-09 00:43:05,0.06,1.89,0.00,21.25,22.69,25.50,5.98,31.83,1013.02,2062.00,2726.22,2894.00,3054.00,349.66,324.43,33.47,0000 0000 0000 0000 000000
2013-11-09 00:44:05,0.05,1.89,0.00,21.24,22.69,25.55,5.88,31.96,1013.01,2062.00,2726.07,2893.97,3053.99,349.30,324.30,33.48,0000 0000 0000 0000 000000
2013-11-09 00:45:05,0.02,1.89,0.00,21.25,22.69,25.52,5.98,32.08,1012.89,2062.00,2726.02,2893.98,3053.98,350.14,324.83,33.48,0000 0000 0000 0000 000000
2013-11-09 00:46:06,0.00,1.89,0.00,21.26,22.69,25.55,6.01,31.92,1012.77,2062.02,2726.00,2893.96,3053.95,350.86,325.66,33.49,0000 0000 0000 0000 000000
2013-11-09 00:47:06,0.02,1.89,0.00,21.28,22.69,25.57,5.94,32.04,1012.72,2062.04,2725.99,2893.96,3053.84,349.74,324.27,33.49,0000 0000 0000 0000 000000
2013-11-09 00:48:06,0.04,1.89,0.00,21.26,22.70,25.50,5.77,31.83,1012.71,2062.03,2725.75,2893.84,3053.60,349.08,324.33,33.50,0000 0000 0000 0000 000000
2013-11-09 00:49:06,0.12,1.89,0.00,21.24,22.70,25.52,5.98,32.33,1012.71,2062.02,2725.33,2893.48,3053.29,350.14,324.78,33.50,0000 0000 0000 0000 000000
2013-11-09 00:50:07,0.19,1.89,0.00,21.26,22.70,25.52,5.87,31.63,1012.71,2062.01,2725.12,2893.21,3053.11,349.65,324.38,33.51,0000 0000 0000 0000 000000
2013-11-09 00:51:07,0.13,1.89,0.00,21.26,22.70,25.53,6.01,31.75,1012.71,2062.00,2725.03,2893.08,3053.04,350.63,325.28,33.52,0000 0000 0000 0000 000000
2013-11-09 00:52:07,0.05,1.89,0.00,21.23,22.70,25.55,5.98,32.17,1012.71,2062.00,2724.99,2893.03,3053.01,349.62,324.64,33.52,0000 0000 0000 0000 000000
2013-11-09 00:53:07,0.02,1.89,0.00,21.24,22.70,25.56,6.13,32.25,1012.71,2062.00,2724.91,2893.01,3053.00,350.29,324.76,33.53,0000 0000 0000 0000 000000
2013-11-09 00:54:07,0.03,1.89,0.00,21.22,22.71,25.55,5.95,31.54,1012.71,2062.01,2724.58,2893.00,3052.96,349.83,324.32,33.53,0000 0000 0000 0000 000000
2013-11-09 00:55:08,0.07,1.89,0.00,21.21,22.72,25.56,5.89,31.58,1012.71,2062.00,2724.23,2893.00,3052.69,349.37,324.13,33.54,0000 0000 0000 0000 000000
2013-11-09 00:56:08,0.09,1.89,0.00,21.21,22.72,25.54,5.88,31.75,1012.71,2062.00,2724.08,2892.99,3052.40,349.75,325.05,33.55,0000 0000 0000 0000 000000
2013-11-09 00:57:08,0.07,1.89,0.00,21.20,22.72,25.56,5.91,31.25,1012.71,2062.00,2724.02,2892.96,3052.17,350.47,325.14,33.55,0000 0000 0000 0000 000000
2013-11-09 00:58:08,0.05,1.89,0.00,21.20,22.72,25.54,5.98,31.63,1012.67,2062.00,2723.99,2892.86,3052.06,349.64,324.50,33.56,0000 0000 0000 0000 000000
2013-11-09 00:59:09,0.04,1.89,0.00,21.21,22.72,25.53,5.99,31.42,1012.62,2062.00,2723.89,2892.66,3052.02,350.42,325.04,33.56,0000 0000 0000 0000 000000
2013-11-09 01:00:09,0.07,1.89,0.00,21.24,22.72,25.54,5.94,31.58,1012.58,2062.00,2723.50,2892.42,3052.00,350.12,325.13,33.57,0000 0000 0000 0000 000000
2013-11-09 01:01:09,0.13,1.90,0.00,21.24,22.72,25.57,6.04,31.38,1012.44,2062.00,2723.24,2892.29,3051.99,351.18,325.65,33.57,0000 0000 0000 0000 000000
2013-11-09 01:02:10,0.09,1.90,0.00,21.25,22.72,25.57,5.92,31.42,1012.67,2062.00,2723.10,2892.15,3051.98,349.95,324.58,33.58,0000 0000 0000 0000 000000
2013-11-09 01:03:10,0.06,1.90,0.00,21.25,22.72,25.56,6.04,31.92,1012.71,2062.00,2723.03,2892.07,3051.95,350.97,325.50,33.59,0000 0000 0000 0000 000000
2013-11-09 01:04:10,0.03,1.90,0.00,21.24,22.72,25.58,5.98,31.33,1012.72,2062.00,2723.01,2892.03,3051.91,350.72,325.62,33.59,0000 0000 0000 0000 000000
2013-11-09 01:05:10,0.01,1.90,0.00,21.24,22.72,25.58,6.00,31.21,1012.72,2062.00,2723.00,2892.01,3051.80,349.91,324.88,33.60,0000 0000 0000 0000 000000
2013-11-09 01:06:11,0.02,1.90,0.00,21.24,22.72,25.56,6.04,31.17,1012.71,2062.00,2722.98,2892.00,3051.51,349.09,323.80,33.60,0000 0000 0000 0000 000000
2013-11-09 01:07:11,0.06,1.90,0.00,21.22,22.72,25.57,5.92,31.13,1012.71,2062.00,2722.85,2892.00,3051.29,350.09,324.62,33.61,0000 0000 0000 0000 000000
2013-11-09 01:08:11,0.06,1.90,0.00,21.22,22.72,25.57,5.94,31.33,1012.71,2062.00,2722.43,2892.00,3051.14,349.59,324.30,33.62,0000 0000 0000 0000 000000
2013-11-09 01:09:11,0.09,1.90,0.00,21.21,22.72,25.53,5.88,31.00,1012.71,2062.00,2722.17,2892.00,3051.06,349.53,324.27,33.62,0000 0000 0000 0000 000000
2013-11-09 01:10:12,0.05,1.90,0.00,21.21,22.73,25.54,5.94,31.25,1012.67,2062.00,2722.06,2892.00,3051.03,349.71,324.41,33.63,0000 0000 0000 0000 000000
2013-11-09 01:11:12,0.02,1.90,0.00,21.19,22.73,25.61,5.94,31.38,1012.59,2062.00,2722.02,2891.99,3051.00,349.44,323.66,33.63,0000 0000 0000 0000 000000
2013-11-09 01:12:12,0.01,1.90,0.00,21.20,22.73,25.56,6.05,31.08,1012.57,2062.00,2721.99,2891.99,3051.00,349.99,324.64,33.64,0000 0000 0000 0000 000000
2013-11-09 01:13:12,0.00,1.90,0.00,21.24,22.74,25.61,5.94,31.38,1012.43,2062.00,2721.97,2891.99,3051.00,350.43,325.06,33.64,0000 0000 0000 0000 000000
2013-11-09 01:14:13,0.01,1.90,0.00,21.25,22.74,25.56,6.13,31.50,1012.25,2062.00,2721.69,2891.92,3050.99,350.55,325.00,33.65,0000 0000 0000 0000 000000
2013-11-09 01:15:13,0.06,1.90,0.00,21.24,22.74,25.59,6.02,31.38,1012.23,2062.00,2721.29,2891.80,3050.91,349.48,324.12,33.66,0000 0000 0000 0000 000000
2013-11-09 01:16:13,0.10,1.90,0.00,21.23,22.74,25.56,5.95,31.67,1012.22,2062.00,2721.10,2891.60,3050.70,349.09,323.14,33.66,0000 0000 0000 0000 000000
2013-11-09 01:17:14,0.12,1.90,0.00,21.23,22.74,25.55,6.02,31.50,1012.22,2062.00,2721.03,2891.31,3050.30,349.99,324.50,33.67,0000 0000 0000 0000 000000
2013-11-09 01:18:14,0.15,1.90,0.00,21.22,22.74,25.59,6.12,31.54,1012.22,2062.00,2721.00,2891.13,3050.11,349.16,323.73,33.67,0000 0000 0000 0000 000000
2013-11-09 01:19:14,0.07,1.90,0.00,21.23,22.74,25.56,5.97,31.33,1012.21,2062.00,2720.95,2891.08,3050.05,350.33,324.81,33.68,0000 0000 0000 0000 000000
2013-11-09 01:20:14,0.03,1.90,0.00,21.22,22.74,25.55,5.95,31.13,1012.21,2062.00,2720.64,2891.06,3050.03,350.13,324.63,33.69,0000 0000 0000 0000 000000
2013-11-09 01:21:14,0.06,1.90,0.00,21.23,22.74,25.57,5.87,30.96,1012.22,2062.00,2720.36,2891.04,3050.01,349.43,323.97,33.69,0000 0000 0000 0000 000000
2013-11-09 01:22:15,0.05,1.90,0.00,21.23,22.74,25.61,5.96,31.42,1012.22,2062.00,2720.14,2891.01,3050.00,349.74,324.26,33.70,0000 0000 0000 0000 000000
2013-11-09 01:23:15,0.04,1.90,0.00,21.24,22.74,25.58,6.10,31.79,1012.21,2062.00,2720.05,2891.00,3050.00,350.92,325.34,33.70,0000 0000 0000 0000 000000
2013-11-09 01:24:15,0.01,1.90,0.00,21.23,22.74,25.58,6.02,31.96,1012.13,2062.00,2720.02,2891.00,3049.99,349.92,324.47,33.71,0000 0000 0000 0000 000000
2013-11-09 01:25:15,0.00,1.90,0.00,21.22,22.74,25.63,5.93,31.71,1012.16,2062.00,2719.99,2890.99,3049.95,349.73,324.36,33.72,0000 0000 0000 0000 000000
2013-11-09 01:26:16,0.01,1.90,0.00,21.21,22.74,25.57,6.07,31.46,1012.20,2062.00,2719.88,2890.99,3049.80,351.13,325.57,33.72,0000 0000 0000 0000 000000
2013-11-09 01:27:16,0.05,1.90,0.00,21.19,22.74,25.57,6.00,31.25,1012.22,2062.00,2719.43,2890.98,3049.50,350.25,324.81,33.73,0000 0000 0000 0000 000000
2013-11-09 01:28:16,0.11,1.90,0.00,21.19,22.74,25.59,5.88,31.33,1012.22,2062.00,2719.19,2890.97,3049.24,349.23,323.75,33.73,0000 0000 0000 0000 000000
2013-11-09 01:29:16,0.08,1.91,0.00,21.18,22.74,25.54,6.02,31.54,1012.22,2062.00,2719.07,2890.93,3049.13,350.49,325.08,33.74,0000 0000 0000 0000 000000
2013-11-09 01:30:17,0.07,1.91,0.00,21.17,22.74,25.56,5.87,31.17,1012.22,2062.00,2719.02,2890.59,3049.05,348.55,323.23,33.74,0000 0000 0000 0000 000000
2013-11-09 01:31:17,0.10,1.91,0.00,21.18,22.74,25.56,6.04,31.33,1012.22,2062.00,2719.00,2890.31,3049.02,350.61,325.07,33.75,0000 0000 0000 0000 000000
2013-11-09 01:32:17,0.07,1.91,0.00,21.17,22.75,25.56,6.00,31.58,1012.22,2062.00,2718.95,2890.25,3049.00,349.26,324.58,33.76,0000 0000 0000 0000 000000
2013-11-09 01:33:17,0.04,1.91,0.00,21.20,22.75,25.58,5.93,31.13,1012.22,2062.00,2718.62,2890.14,3048.99,351.23,325.88,33.76,0000 0000 0000 0000 000000
2013-11-09 01:34:17,0.07,1.91,0.00,21.21,22.75,25.59,6.13,32.08,1012.22,2062.00,2718.34,2890.09,3048.99,350.96,325.42,33.77,0000 0000 0000 0000 000000
2013-11-09 01:35:18,0.06,1.91,0.00,21.21,22.75,25.61,5.91,30.79,1012.22,2062.00,2718.14,2890.05,3048.95,350.02,324.11,33.77,0000 0000 0000 0000 000000
2013-11-09 01:36:18,0.04,1.91,0.00,21.21,22.75,25.60,6.02,31.75,1012.23,2062.00,2718.05,2890.02,3048.91,349.83,324.15,33.78,0000 0000 0000 0000 000000
2013-11-09 01:37:18,0.04,1.91,0.00,21.23,22.75,25.58,5.98,31.17,1012.22,2062.00,2718.01,2890.00,3048.65,350.54,325.06,33.79,0000 0000 0000 0000 000000
2013-11-09 01:38:18,0.05,1.91,0.00,21.22,22.75,25.61,5.88,31.00,1012.22,2062.00,2717.97,2890.00,3048.40,351.00,325.44,33.79,0000 0000 0000 0000 000000
2013-11-09 01:39:18,0.04,1.91,0.00,21.21,22.75,25.61,5.98,30.92,1012.20,2062.00,2717.94,2890.00,3048.24,349.45,324.29,33.80,0000 0000 0000 0000 000000
2013-11-09 01:40:19,0.03,1.91,0.00,21.21,22.75,25.59,6.00,31.13,1012.22,2062.00,2717.70,2889.99,3048.11,350.16,324.69,33.80,0000 0000 0000 0000 000000
2013-11-09 01:41:19,0.06,1.91,0.00,21.18,22.75,25.58,6.02,31.50,1012.22,2062.00,2717.33,2889.98,3048.05,349.89,324.46,33.81,0000 0000 0000 0000 000000
2013-11-09 01:42:19,0.06,1.91,0.00,21.17,22.75,25.59,5.93,30.92,1012.21,2062.00,2717.13,2889.95,3048.01,350.01,324.58,33.81,0000 0000 0000 0000 000000
2013-11-09 01:43:19,0.04,1.91,0.00,21.16,22.75,25.59,6.01,31.33,1012.22,2062.00,2717.05,2889.92,3048.00,350.45,325.01,33.82,0000 0000 0000 0000 000000
2013-11-09 01:44:20,0.03,1.91,0.00,21.18,22.75,25.57,5.93,31.33,1012.20,2062.00,2717.01,2889.79,3048.00,349.85,324.41,33.83,0000 0000 0000 0000 000000
2013-11-09 01:45:20,0.03,1.91,0.00,21.19,22.75,25.60,6.13,31.63,1012.21,2062.00,2716.97,2889.66,3048.00,350.09,324.72,33.83,0000 0000 0000 0000 000000
2013-11-09 01:46:20,0.05,1.91,0.00,21.20,22.75,25.57,6.04,31.79,1012.15,2062.00,2716.79,2889.41,3047.99,350.72,325.10,33.84,0000 0000 0000 0000 000000
2013-11-09 01:47:21,0.10,1.91,0.00,21.20,22.75,25.59,5.99,31.42,1011.98,2062.00,2716.35,2889.17,3047.92,350.18,324.82,33.84,0000 0000 0000 0000 000000
2013-11-09 01:48:21,0.14,1.91,0.00,21.19,22.75,25.58,6.02,31.29,1011.91,2062.00,2716.15,2889.10,3047.73,349.88,324.18,33.85,0000 0000 0000 0000 000000
2013-11-09 01:49:21,0.08,1.91,0.00,21.22,22.75,25.62,5.95,31.63,1011.85,2062.00,2716.05,2889.07,3047.47,349.02,323.71,33.86,0000 0000 0000 0000 000000
2013-11-09 01:50:21,0.06,1.91,0.00,21.22,22.75,25.61,6.02,31.21,1011.85,2062.00,2716.02,2889.03,3047.25,349.81,324.23,33.86,0000 0000 0000 0000 000000
2013-11-09 01:51:22,0.04,1.91,0.00,21.22,22.75,25.58,5.91,31.17,1011.82,2062.00,2715.99,2889.02,3047.12,350.24,324.62,33.87,0000 0000 0000 0000 000000
2013-11-09 01:52:22,0.02,1.91,0.00,21.23,22.75,25.59,5.93,31.25,1011.76,2062.00,2715.86,2889.00,3047.06,350.24,324.15,33.87,0000 0000 0000 0000 000000
2013-11-09 01:53:22,0.03,1.91,0.00,21.25,22.75,25.57,5.87,31.33,1011.78,2062.00,2715.46,2889.00,3047.03,349.57,324.24,33.88,0000 0000 0000 0000 000000
2013-11-09 01:54:23,0.07,1.91,0.00,21.24,22.76,25.59,5.93,31.50,1011.89,2061.99,2715.20,2889.00,3047.01,349.44,324.14,33.89,0000 0000 0000 0000 000000
2013-11-09 01:55:23,0.03,1.91,0.00,21.22,22.76,25.58,5.88,31.29,1011.79,2061.99,2715.10,2888.99,3047.00,349.50,323.92,33.89,0000 0000 0000 0000 000000
2013-11-09 01:56:23,0.02,1.91,0.00,21.21,22.76,25.57,5.93,31.29,1011.80,2061.99,2715.03,2888.97,3047.00,350.46,325.19,33.90,0000 0000 0000 0000 000000
2013-11-09 01:57:24,0.02,1.91,0.00,21.20,22.76,25.58,5.91,31.21,1011.77,2061.99,2715.01,2888.97,3046.97,349.77,324.18,33.90,0000 0000 0000 0000 000000
2013-11-09 01:58:24,0.01,1.91,0.00,21.16,22.76,25.61,5.82,31.67,1011.75,2061.99,2714.99,2888.98,3046.90,349.41,323.89,33.91,0000 0000 0000 0000 000000
2013-11-09 01:59:24,0.01,1.91,0.00,21.15,22.76,25.61,5.92,31.67,1011.75,2061.99,2714.86,2888.89,3046.79,349.93,324.75,33.91,0000 0000 0000 0000 000000
2013-11-09 02:00:25,0.06,1.92,0.00,21.16,22.76,25.62,5.88,31.96,1011.75,2061.99,2714.69,2888.79,3046.47,350.35,324.75,33.92,0000 0000 0000 0000 000000
2013-11-09 02:01:25,0.13,1.92,0.00,21.16,22.76,25.60,6.06,32.04,1011.73,2061.99,2714.32,2888.56,3046.24,351.06,325.41,33.93,0000 0000 0000 0000 000000
2013-11-09 02:02:25,0.14,1.92,0.00,21.17,22.76,25.61,5.99,31.63,1011.73,2061.99,2714.13,2888.44,3046.10,349.67,324.11,33.93,0000 0000 0000 0000 000000
2013-11-09 02:03:25,0.09,1.92,0.00,21.18,22.76,25.58,5.95,31.29,1011.73,2061.99,2714.04,2888.26,3046.05,349.60,323.38,33.94,0000 0000 0000 0000 000000
2013-11-09 02:04:26,0.06,1.92,0.00,21.18,22.76,25.59,6.02,31.71,1011.73,2061.99,2713.99,2888.13,3046.02,349.82,324.25,33.94,0000 0000 0000 0000 000000
2013-11-09 02:05:26,0.05,1.92,0.00,21.19,22.77,25.58,6.13,31.63,1011.73,2061.99,2713.92,2888.05,3046.00,350.09,324.48,33.95,0000 0000 0000 0000 000000
2013-11-09 02:06:26,0.03,1.92,0.00,21.17,22.76,25.59,6.02,31.58,1011.73,2061.99,2713.73,2888.02,3046.00,350.86,325.37,33.96,0000 0000 0000 0000 000000
2013-11-09 02:07:26,0.05,1.92,0.00,21.16,22.76,25.60,5.93,31.79,1011.72,2061.99,2713.30,2888.00,3046.00,349.61,324.06,33.96,0000 0000 0000 0000 000000
2013-11-09 02:08:27,0.06,1.92,0.00,21.18,22.77,25.59,5.95,31.79,1011.70,2061.99,2713.11,2888.00,3045.94,350.01,324.22,33.97,0000 0000 0000 0000 000000
2013-11-09 02:09:27,0.03,1.92,0.00,21.19,22.77,25.60,5.84,31.58,1011.73,2061.99,2713.04,2888.00,3045.87,349.52,324.58,33.97,0000 0000 0000 0000 000000
2013-11-09 02:10:27,0.03,1.92,0.00,21.19,22.77,25.60,6.00,31.54,1011.72,2061.99,2713.00,2888.00,3045.55,349.34,323.69,33.98,0000 0000 0000 0000 000000
2013-11-09 02:11:27,0.05,1.92,0.00,21.20,22.77,25.55,5.92,31.75,1011.60,2061.99,2712.79,2888.00,3045.28,349.38,323.55,33.98,0000 0000 0000 0000 000000
2013-11-09 02:12:28,0.07,1.92,0.00,21.21,22.77,25.60,6.03,31.63,1011.72,2061.99,2712.69,2887.98,3045.12,351.19,325.35,33.99,0000 0000 0000 0000 000000
2013-11-09 02:13:28,0.06,1.92,0.00,21.20,22.77,25.59,5.91,31.71,1011.65,2061.99,2712.40,2887.87,3045.05,348.97,323.81,34.00,0000 0000 0000 0000 000000
2013-11-09 02:14:28,0.08,1.92,0.00,21.20,22.77,25.58,5.93,31.38,1011.64,2061.99,2712.15,2887.64,3045.01,350.06,324.70,34.00,0000 0000 0000 0000 000000
2013-11-09 02:15:28,0.11,1.92,0.00,21.21,22.77,25.60,6.00,31.79,1011.55,2061.99,2712.05,2887.33,3045.00,350.46,324.59,34.01,0000 0000 0000 0000 000000
2013-11-09 02:16:29,0.09,1.92,0.00,21.21,22.77,25.62,5.98,31.46,1011.59,2061.99,2712.01,2887.14,3044.99,350.21,324.52,34.01,0000 0000 0000 0000 000000
2013-11-09 02:17:29,0.06,1.92,0.00,21.19,22.77,25.61,6.06,31.75,1011.70,2061.98,2711.97,2887.08,3044.99,349.62,324.04,34.02,0000 0000 0000 0000 000000
2013-11-09 02:18:29,0.01,1.92,0.00,21.20,22.77,25.59,5.92,31.63,1011.43,2061.99,2711.80,2887.04,3044.94,349.93,324.22,34.03,0000 0000 0000 0000 000000
2013-11-09 02:19:29,0.06,1.92,0.00,21.20,22.77,25.63,5.88,31.79,1011.39,2061.99,2711.34,2887.01,3044.81,349.42,323.59,34.03,0000 0000 0000 0000 000000
2013-11-09 02:20:30,0.10,1.92,0.00,21.21,22.77,25.60,6.02,31.46,1011.57,2061.99,2711.17,2887.00,3044.42,349.53,323.88,34.04,0000 0000 0000 0000 000000
2013-11-09 02:21:30,0.08,1.92,0.00,21.21,22.77,25.59,5.88,31.71,1011.38,2061.99,2711.07,2887.00,3044.17,349.66,323.85,34.04,0000 0000 0000 0000 000000
2013-11-09 02:22:30,0.06,1.92,0.00,21.22,22.77,25.61,6.02,32.00,1011.45,2061.99,2711.01,2887.00,3044.08,350.10,324.33,34.05,0000 0000 0000 0000 000000
2013-11-09 02:23:31,0.04,1.92,0.00,21.21,22.77,25.59,5.92,31.75,1011.45,2061.99,2710.66,2886.99,3044.04,350.05,324.63,34.06,0000 0000 0000 0000 000000
2013-11-09 02:24:31,0.04,1.92,0.00,21.21,22.77,25.60,6.02,32.29,1011.37,2061.99,2710.44,2886.94,3044.01,349.56,323.59,34.06,0000 0000 0000 0000 000000
2013-11-09 02:25:31,0.06,1.93,0.00,21.19,22.77,25.59,6.07,31.88,1011.59,2061.99,2710.24,2886.92,3043.99,351.44,325.53,34.07,0000 0000 0000 0000 000000
2013-11-09 02:26:31,0.05,1.93,0.00,21.17,22.77,25.59,6.00,31.92,1011.69,2061.99,2710.11,2886.76,3043.97,350.33,324.70,34.07,0000 0000 0000 0000 000000
2013-11-09 02:27:32,0.07,1.93,0.00,21.16,22.77,25.60,6.01,31.79,1011.73,2061.98,2710.05,2886.47,3043.90,349.35,323.83,34.08,0000 0000 0000 0000 000000
2013-11-09 02:28:32,0.08,1.93,0.00,21.18,22.77,25.62,6.01,32.00,1011.73,2061.99,2710.02,2886.34,3043.85,350.88,325.23,34.08,0000 0000 0000 0000 000000
2013-11-09 02:29:32,0.07,1.93,0.00,21.19,22.77,25.60,5.98,31.96,1011.73,2061.99,2710.00,2886.16,3043.50,349.31,324.06,34.09,0000 0000 0000 0000 000000
2013-11-09 02:30:32,0.09,1.93,0.00,21.18,22.77,25.61,5.98,31.88,1011.73,2061.99,2709.99,2886.06,3043.26,349.94,324.48,34.10,0000 0000 0000 0000 000000
2013-11-09 02:31:33,0.07,1.93,0.00,21.19,22.77,25.57,5.98,31.96,1011.73,2061.99,2709.84,2886.02,3043.10,349.93,324.33,34.10,0000 0000 0000 0000 000000
2013-11-09 02:32:33,0.07,1.93,0.00,21.19,22.77,25.57,6.09,31.96,1011.73,2061.99,2709.47,2886.02,3043.06,350.73,324.89,34.11,0000 0000 0000 0000 000000
2013-11-09 02:33:33,0.07,1.93,0.00,21.18,22.77,25.62,6.03,31.88,1011.73,2061.99,2709.19,2886.01,3043.02,350.64,324.64,34.11,0000 0000 0000 0000 000000
2013-11-09 02:34:34,0.05,1.93,0.00,21.18,22.77,25.63,5.89,31.88,1011.73,2061.99,2709.07,2886.00,3043.00,348.41,322.94,34.12,0000 0000 0000 0000 000000
2013-11-09 02:35:34,0.02,1.93,0.00,21.18,22.77,25.64,6.00,31.79,1011.78,2061.99,2709.02,2886.00,3043.00,349.87,324.29,34.13,0000 0000 0000 0000 000000
2013-11-09 02:36:34,0.00,1.93,0.00,21.19,22.77,25.60,5.97,31.67,1011.84,2061.99,2708.98,2885.98,3042.98,350.21,324.63,34.13,0000 0000 0000 0000 000000